Hundvaag 1 weather for Mar 1990
Month no. 33
Obs.
Da.
Temp. Dew Point Precip. Wind
Speed
Wind gusts Cloud cover Press. Humidity Wind dir. Sunny OPT
01.03.1990 1,0   0,3                
02.03.1990 -2,0   1,7                
03.03.1990 1,7   0,3                
04.03.1990 4,0   17,5             1  
05.03.1990 5,9   3,1                
06.03.1990 3,2   7,2                
07.03.1990 5,6   0,5                
08.03.1990 4,8   4,1                
09.03.1990 2,5   10,4                
10.03.1990 3,9   2,1                
11.03.1990 6,8   14,5             1  
12.03.1990 3,6   5,4                
13.03.1990 0,6   0,4                
14.03.1990 5,2   0,1                
15.03.1990 7,0   2,6                
16.03.1990 7,4   21,4                
17.03.1990 7,1   1,7             1  
18.03.1990 14,0   7,1             1  
19.03.1990 9,5   26,4             1  
20.03.1990 4,3   2,7                
21.03.1990 6,9   1,5             1  
22.03.1990 6,0   0,0                
23.03.1990 4,7   0,0                
24.03.1990 6,4   0,8             1  
25.03.1990 4,8   4,0             1  
26.03.1990 3,6   1,9             1  
27.03.1990 0,3   0,0                
28.03.1990 4,4   0,9                
29.03.1990 3,1   0,0             1  
30.03.1990 7,0   9,0                
31.03.1990 7,5   1,9                
Avrg/Sum 4,9   149,5             10